Regional Weather Roundup
Issued by NWS

Home | Current Version | Previous Version | Graphics & Text | Print | Product List | Glossary On
Versions: 1 2 3 4 5 6 7 8 9 10 11 12 13 14 15 16 17 18 19 20 21 22 23 24 25 26 27 28 29 30 31 32 33 34 35 36 37 38 39 40 41 42 43 44 45 46 47 48 49 50
000
ASUS43 KLMK 231502
RWRKY
KENTUCKY REGIONAL WEATHER ROUNDUP
NATIONAL WEATHER SERVICE LOUISVILLE KY
1100 AM EDT THU MAR 23 2017

NOTE "FAIR" INDICATES FEW OR NO CLOUDS BELOW 12,000 FEET
WITH NO SIGNIFICANT WEATHER AND/OR OBSTRUCTIONS TO VISIBILITY.

KYZ001>023-026-027-061>063-070>075-231600-
WESTERN AND SOUTH CENTRAL KENTUCKY

CITY           SKY/WX    TMP DP  RH WIND       PRES   REMARKS
PADUCAH        CLOUDY    39  32  76 E9        30.34R WCI  33
HENDERSON      CLOUDY    39  23  52 CALM      30.40R
OWENSBORO      PTSUNNY   42  23  46 E5        30.40R
HOPKINSVILLE   CLOUDY    41  26  55 CALM      30.35S
BOWLING GREEN  CLOUDY    48  25  40 E5        30.37S
GLASGOW        NOT AVBL
$$

KYZ024-025-028>034-038-045-046-053-231600-
NORTH CENTRAL KENTUCKY

CITY           SKY/WX    TMP DP  RH WIND       PRES   REMARKS
LOUISVILLE/SDF CLOUDY    42  16  34 SE10      30.41F
LOUISVILLE/LOU CLOUDY    42  18  37 VRB7      30.41F
FORT KNOX      MOSUNNY   40  20  43 E6        30.37S
$$

KYZ035>037-039>044-047>052-055>060-089>105-231600-
NORTHEAST KENTUCKY

CITY           SKY/WX    TMP DP  RH WIND       PRES   REMARKS
LEXINGTON      SUNNY     44  17  33 E7        30.41S
COVINGTON      PTSUNNY   39  15  37 E9        30.44R WCI  33
FRANKFORT      SUNNY     42  18  37 E8        30.41S
$$

KYZ054-064>069-076>088-106>120-231600-
SOUTHEAST KENTUCKY

CITY           SKY/WX    TMP DP  RH WIND       PRES   REMARKS
JACKSON        SUNNY     42  19  39 VRB5      30.40S
LONDON         SUNNY     47  20  34 SE5       30.40R
SOMERSET       SUNNY     46  23  39 SE3       30.41S
MIDDLESBORO    SUNNY     52  24  33 SE3       30.42S
MONTICELLO     SUNNY     51  26  37 VRB7      30.40S
$$





USA.gov is the U.S. government's official web portal to all federal, state and local government web resources and services.